Regional Weather Roundup
Issued by NWS

Home | Current Version | Previous Version | Text Only | Print | Product List | Glossary Off
Versions: 1 2 3 4 5 6 7 8 9 10 11 12 13 14 15 16 17 18 19 20 21 22 23 24 25 26 27 28 29 30 31 32 33 34 35 36 37 38 39 40 41 42 43 44 45 46 47 48 49 50

000
ASUS45 KPSR 261210
RWRAZ

ARIZONA HOURLY REGIONAL WEATHER ROUNDUP
NATIONAL WEATHER SERVICE PHOENIX AZ
500 AM MST FRI AUG 26 2016

NOTE: FAIR INDICATES FEW OR NO CLOUDS BELOW 12,000 FEET WITH NO
SIGNIFICANT WEATHER AND/OR OBSTRUCTIONS TO VISIBILITY.

AZZ001>003-036-261300-
NORTHWEST ARIZONA

CITY           SKY/WX    TMP DP  RH WIND       PRES   REMARKS
BULLHEAD CITY  FAIR      86  50  28 S5        29.81R
KINGMAN        FAIR      72  50  46 SE10G24   30.01S
6HR MIN TEMP:  71; 6HR MAX TEMP:  79;

$$

AZZ004>008-015-016-018-261300-
NORTH CENTRAL ARIZONA

CITY           SKY/WX    TMP DP  RH WIND       PRES   REMARKS
GRAND CANYON     N/A    N/A N/A N/A MISG      30.28S
PRESCOTT       FAIR      56  54  93 NE3       30.17R
6HR MIN TEMP:  56; 6HR MAX TEMP:  63; 6HR PCP:  0.24;

FLAGSTAFF      CLOUDY    51  50  96 NE7       30.31F
6HR MIN TEMP:  50; 6HR MAX TEMP:  53; 6HR PCP:  0.04;

PAYSON         CLOUDY    61  52  72 SW10      30.26R
PAGE           FAIR      61  56  83 NW5       30.14R
6HR MIN TEMP:  61; 6HR MAX TEMP:  64; 6HR PCP: TRACE;

$$

AZZ009>014-017-261300-
NORTHEAST ARIZONA

CITY           SKY/WX    TMP DP  RH WIND       PRES   REMARKS
WINSLOW        LGT RAIN  58  55  90 CALM      30.25R
6HR MIN TEMP:  57; 6HR MAX TEMP:  63; 6HR PCP:  0.07;

SAINT JOHNS    CLOUDY    57  51  80 W10       30.25R
6HR MIN TEMP:  56; 6HR MAX TEMP:  66; 6HR PCP:  0.05;

WINDOW ROCK    FAIR      48  45  89 CALM      30.29R
6HR MIN TEMP:  48; 6HR MAX TEMP:  57;

SHOW LOW       CLOUDY    50  48  93 CALM      30.30F
$$

AZZ023-261300-
GREATER PHOENIX AREA

CITY           SKY/WX    TMP DP  RH WIND       PRES   REMARKS
PHOENIX        MOCLDY    82  60  47 NE12      29.89R
6HR MIN TEMP:  82; 6HR MAX TEMP:  94; 6HR PCP: TRACE;

BUCKEYE        CLOUDY    82  55  39 E10       29.90R
LUKE AFB       MOCLDY    82  59  45 NE13      29.90R
6HR MIN TEMP:  81; 6HR MAX TEMP:  90; 6HR PCP: TRACE;

DEER VALLEY    MOCLDY    75  61  61 NE13      29.92S
6HR MIN TEMP:  74; 6HR MAX TEMP:  88; 6HR PCP:  0.09;

SCOTTSDALE     CLOUDY    79  59  50 NE16      29.93F
6HR MIN TEMP:  76; 6HR MAX TEMP:  87; 6HR PCP:  0.07;

MESA-GATEWAY   MOCLDY    79  66  65 N8        29.93R
$$

AZZ027-028-261300-
SOUTHWEST MARICOPA COUNTY AND PINAL COUNTY

CITY           SKY/WX    TMP DP  RH WIND       PRES   REMARKS
CASA GRANDE    FAIR      82  59  44 CALM      29.94R
6HR MIN TEMP:  81; 6HR MAX TEMP:  91;

GILA BEND      MOCLDY    82  57  42 NE6       29.87R
6HR MIN TEMP:  82; 6HR MAX TEMP:  90; 6HR PCP: TRACE;

$$

AZZ503-504-507>509-261300-
SOUTHEAST ARIZONA

CITY           SKY/WX    TMP DP  RH WIND       PRES   REMARKS
TUCSON         FAIR      79  59  50 S10       30.01S
6HR MIN TEMP:  79; 6HR MAX TEMP:  85;

DAVIS-MONTHAN  CLOUDY    75  59  56 SE7       30.00S
6HR MIN TEMP:  75; 6HR MAX TEMP:  82;

NOGALES        FAIR      63  57  81 CALM      30.10S
6HR MIN TEMP:  63; 6HR MAX TEMP:  70;

SIERRA VISTA   FAIR      65  54  66 S1        30.14S
6HR MIN TEMP:  64; 6HR MAX TEMP:  70;

DOUGLAS        FAIR      61  57  87 CALM      30.11S
6HR MIN TEMP:  60; 6HR MAX TEMP:  68;

SAFFORD        CLOUDY    69  60  73 N12       30.03R
6HR MIN TEMP:  67; 6HR MAX TEMP:  77; 6HR PCP:  0.01;

$$

AZZ020-021-025-026-031-261300-
SOUTHWEST ARIZONA

CITY           SKY/WX    TMP DP  RH WIND       PRES   REMARKS
YUMA           FAIR      82  75  79 SE12      29.79R
6HR MIN TEMP:  82; 6HR MAX TEMP:  87;

$$

CAZ031-033-041-043-047-048-061-261300-
SOUTHERN CALIFORNIA

CITY           SKY/WX    TMP DP  RH WIND       PRES   REMARKS
DOWNTOWN L.A.  CLOUDY    66  57  72 CALM      29.92S
6HR MIN TEMP:  66; 6HR MAX TEMP:  67;

L.A. AIRPORT   CLOUDY    66  57  72 E7        29.92S
6HR MIN TEMP:  65; 6HR MAX TEMP:  67;

SAN DIEGO      MOCLDY    66  59  78 S3        29.93S
6HR MIN TEMP:  66; 6HR MAX TEMP:  67;

BURBANK        CLOUDY    65  58  78 S6        29.92S
6HR MIN TEMP:  64; 6HR MAX TEMP:  66;

ONTARIO        CLOUDY    63  58  83 CALM      29.93S HAZE
6HR MIN TEMP:  62; 6HR MAX TEMP:  66;

RIVERSIDE      CLOUDY    63  58  83 CALM      29.93S
6HR MIN TEMP:  63; 6HR MAX TEMP:  67;

PALM SPRINGS   FAIR      79  48  33 CALM      29.82R
6HR MIN TEMP:  76; 6HR MAX TEMP:  88;

EL CENTRO NAS  FAIR      79  72  79 E7        29.79R
6HR MIN TEMP:  78; 6HR MAX TEMP:  90;

IMPERIAL       FAIR      82  73  74 E5        29.76R
6HR MIN TEMP:  82; 6HR MAX TEMP:  91;

BLYTHE         FAIR      82  71  69 SW6       29.81R
6HR MIN TEMP:  82; 6HR MAX TEMP:  93;

NEEDLES        FAIR      87  46  24 SE3       29.82S
6HR MIN TEMP:  86; 6HR MAX TEMP:  96;

$$

NVZ020-UTZ003-261300-
SOUTHERN NEVADA-UTAH

CITY           SKY/WX    TMP DP  RH WIND       PRES   REMARKS
LAS VEGAS      FAIR      80  47  31 N3        29.87R
6HR MIN TEMP:  80; 6HR MAX TEMP:  90;

SALT LAKE CITY FAIR      66  39  37 SE7       30.02S
6HR MIN TEMP:  66; 6HR MAX TEMP:  71;

$$

NMZ009-TXZ055-261300-
NEW MEXICO-WEST TEXAS

CITY           SKY/WX    TMP DP  RH WIND       PRES   REMARKS
ALBUQUERQUE    CLOUDY    61  55  81 NW9       30.21R
6HR MIN TEMP:  61; 6HR MAX TEMP:  72;

EL PASO        FAIR      69  57  65 N3        30.11R
6HR MIN TEMP:  68; 6HR MAX TEMP:  73;

$$


........................KEY........................
SKY/WX - SKY CONDITION/WEATHER
TMP    - TEMPERATURE IN FAHRENHEIT
DP     - DEW POINT IN FAHRENHEIT
RH     - RELATIVE HUMIDITY IN PERCENT
WIND   - DIRECTION AND SPEED IN MILES PER HOUR (MPH)
VRB    - VARIABLE WIND DIRECTION
PRES   - MEAN SEA LEVEL PRESSURE IN INCHES OF MERCURY
         F - FALLING PRESSURE   R - RISING PRESSURE
         S - STEADY PRESSURE
VSB    - VISIBILITY IN MILES
HX     - HEAT INDEX IN FAHRENHEIT
WCI    - WIND CHILL INDEX IN FAHRENHEIT
TC     - TEMPERATURE IN CELSIUS WHICH IS ALSO KNOWN AS
         TEMPERATURE IN CENTIGRADE
AFB    - AIR FORCE BASE
         LUKE AFB IS LUKE AIR FORCE BASE
         DAVIS-MONTHAN IS DAVIS-MONTHAN AIR FORCE BASE
NAS    - NAVAL AIR STATION
         EL CENTRO NAS IS EL CENTRO NAVAL AIR STATION
N/A    - NOT AVAILABLE




USA.gov is the U.S. government's official web portal to all federal, state and local government web resources and services.